sat.trackr.live / text

‹ back to catalog

STARLINK-11322 [DTC]

NORAD 61542 · 2024-184L

PAYLOAD ACTIVE UNKNOWN

§ Identity

Operator
Country
US
Launch date
2024-10-15
Launch site
AFWTR
Launch vehicle
Mass (kg)
RCS (m²)

Purposes: comms

External: N2YO · Heavens-Above · Gunter

§ Orbital elements

Epoch: 2026-05-24T10:55:07.223808Z

Period
91.74 min
Inclination
53.1575°
Eccentricity
0.0000858
Mean motion
15.69719073 rev/d
Perigee alt
359.1 km
Apogee alt
360.3 km
Semi-major
6,737.8 km
B*
-2.4794e-5
RAAN
223.0214°
Arg perigee
81.8727°
Mean anomaly
278.2388°
Rev number
9,337

§ Raw data

STARLINK-11322 [DTC]1 61542U 24184L   26144.45494472 -.00003592  00000+0 -24794-4 0  99932 61542  53.1575 223.0214 0000858  81.8727 278.2388 15.69719073 93372

JSON: /api/v1/satellites/61542 · /tle

For live sub-satellite position, see the globe view (requires WebGL).

§ Visibility from observer

Set your observer location to see the next 7 days of passes ≥ 10°. The values pass through the URL so the page stays shareable.

No JS? Fill the form by hand. The geolocation button needs JavaScript.